NINGXIA-1 2 (44780 NORAD) Tracking and Keplerian Element Data

This shows tracking and keplerian element data for the satellite.

Feedback or suggestion? Click here.




ElementValue
Catalog44780
NameNINGXIA-1 2
Epoch Orbit994
Epoch Day23.14795308
Epoch Year2020
RAAN179.2652
Inclination45.0089
Eccentricity0.0008332
Argument of Perigee260.6882
Mean Anonmoly99.3014
Mean Motion14.0167525
Decay Rate-1.3E-06
L11 44780U 19076B 20023.14795308 -.00000130 00000-0 00000+0 0 9994
L22 44780 45.0089 179.2652 0008332 260.6882 99.3014 14.01675250 9940

Live tracking and technical data element details for NINGXIA-1 2 (NORAD 44780). NINGXIA-1 2 can be tracked NOW for your location showing map with azimuth and elevation plus other details from your city location.

Track the satellite on the map from your city or location and see movement details for azimuth, elevation, latitude, longitude, range, height, and movement on the map or in text.







IsCatalogInMostPopularTable: catalog: 44780, numindb: 10
Update: records affected: 1



GetName: 44780 NINGXIA-1 2

Hit Count: updated at: Fri, 24 Jan 2020 14:48:22 GMT